Weather History for KBHM - May, 2013

Change the Weather History Date:

Friday, May 10, 2013

  Actual Average Record
Temperature  
Mean Temperature 69 °F 69 °F  
Max Temperature 76 °F 80 °F 94 °F (1896)
Min Temperature 62 °F 58 °F 38 °F (1966)
Cooling Degree Days 4 5  
Month to date cooling degree days 14 43  
Year to date cooling degree days 91 127  
Growing Degree Days 18 (Base 50)    
Moisture  
Dew Point 57 °F    
Average Humidity 68    
Maximum Humidity 87    
Minimum Humidity 49    
Precipitation  
Precipitation T in 0.16 in 1.46 in (1935)
Month to date precipitation 2.99 1.63  
Year to date precipitation 27.54 20.61  
Sea Level Pressure  
Sea Level Pressure 30.03 in    
Wind  
Wind Speed 8 mph (SSW)    
Max Wind Speed 21 mph    
Max Gust Speed 30 mph    
Visibility 10 miles    
Events Rain    
T = Trace of Precipitation, MM = Missing Value Source: NWS Daily Summary

Daily Weather History Graph

Daily Weather History Graph

Search for Another Location

Airport or City:

Trip Planner

Search our weather history database for the weather conditions in past years. The results will help you decide how hot, cold, wet, or windy it might be!

Date:

Astronomy

May. 10, 2013 Rise Set
Actual Time 5:50 AM CDT 7:37 PM CDT
Civil Twilight 5:22 AM CDT 8:04 PM CDT
Nautical Twilight 4:50 AM CDT 8:37 PM CDT
Astronomical Twilight 4:15 AM CDT 9:11 PM CDT
Moon 6:14 AM CDT (5/10) 8:24 PM CDT (5/10)
Length of Visible Light 14h 41m
Length of Day
13h 47m
New Moon, 0% of the Moon is Illuminated
May 10
New Moon
May 17
First Quarter
May 24
Full
May 31
Last Quarter
Jun 8
New

Hourly Weather History & Observations

Time (CDT) Temp. Dew Point Humidity Pressure Visibility Wind Dir Wind Speed Gust Speed Precip Events Conditions
12:53 AM 68.0 °F 59.0 °F 73% 30.06 in 10.0 mi Calm Calm - N/A   Clear
1:53 AM 70.0 °F 57.9 °F 65% 30.04 in 10.0 mi SSW 10.4 mph - N/A   Clear
2:53 AM 69.1 °F 57.9 °F 68% 30.02 in 10.0 mi South 8.1 mph - N/A   Clear
3:53 AM 66.9 °F 57.9 °F 73% 30.01 in 10.0 mi South 5.8 mph - N/A   Clear
4:53 AM 66.0 °F 57.9 °F 75% 30.01 in 10.0 mi South 4.6 mph - N/A   Partly Cloudy
5:53 AM 64.4 °F 57.2 °F 77% 30.11 in 9.0 mi WSW 16.1 mph 24.2 mph N/A Rain Light Rain
6:53 AM 64.4 °F 59.0 °F 83% 30.10 in 10.0 mi West 6.9 mph - N/A   Mostly Cloudy
7:53 AM 64.4 °F 59.0 °F 83% 30.11 in 10.0 mi SW 5.8 mph - N/A   Scattered Clouds
8:53 AM 66.0 °F 55.0 °F 68% 30.08 in 10.0 mi South 6.9 mph - N/A   Scattered Clouds
9:53 AM 68.0 °F 55.0 °F 63% 30.08 in 10.0 mi SSW 13.8 mph - N/A   Partly Cloudy
10:53 AM 73.0 °F 55.0 °F 53% 30.06 in 10.0 mi South 15.0 mph 20.7 mph N/A   Partly Cloudy
11:53 AM 71.6 °F 55.4 °F 57% 30.07 in 10.0 mi South 13.8 mph - N/A   Clear
12:53 PM 71.1 °F 55.0 °F 57% 30.04 in 10.0 mi SW 15.0 mph 21.9 mph N/A   Scattered Clouds
1:53 PM 70.0 °F 55.9 °F 61% 30.02 in 10.0 mi SW 8.1 mph - N/A   Overcast
2:53 PM 72.0 °F 55.9 °F 57% 30.00 in 10.0 mi SSW 12.7 mph - N/A   Mostly Cloudy
3:53 PM 73.0 °F 54.0 °F 51% 30.01 in 10.0 mi SSW 17.3 mph 21.9 mph N/A   Overcast
4:53 PM 72.0 °F 55.9 °F 57% 29.98 in 10.0 mi South 9.2 mph - N/A   Mostly Cloudy
5:53 PM 72.0 °F 55.9 °F 57% 29.97 in 10.0 mi South 11.5 mph - N/A   Mostly Cloudy
6:53 PM 70.0 °F 57.0 °F 63% 29.96 in 10.0 mi South 3.5 mph - N/A   Clear
7:53 PM 69.1 °F 59.0 °F 70% 29.99 in 10.0 mi Calm Calm - N/A   Clear
8:53 PM 66.0 °F 60.1 °F 81% 30.00 in 10.0 mi SE 3.5 mph - N/A   Clear
9:53 PM 66.0 °F 60.1 °F 81% 29.99 in 10.0 mi SE 4.6 mph - N/A   Mostly Cloudy
10:53 PM 66.9 °F 60.1 °F 79% 30.01 in 10.0 mi WSW 3.5 mph - N/A   Overcast
11:53 PM 64.0 °F 60.1 °F 87% 30.00 in 10.0 mi Calm Calm - N/A   Scattered Clouds